Location: Spring Creek
(38.2870°N, 100.2160°W)
Time: 22:57:32
(UTC+00:00)

Cosmos 407 Rocket - Pass Details

Date: 08 May 2021
Orbit: 743 x 787 km, 74.0° (Epoch: 21 June)

Event Time Altitude Azimuth Distance (km) Brightness Sun altitude
Rises 10:24:29 0° 338° (NNW) 3,276 6.9 -13.1°
Reaches altitude 10° 10:26:54 10° 336° (NNW) 2,348 6.2 -12.8°
Maximum altitude 10:32:11 67° 255° (WSW) 850 3.5 -11.9°
Drops below altitude 10° 10:37:28 10° 173° (S) 2,337 5.8 -11.0°
Sets 10:39:51 0° 171° (S) 3,260 6.5 -10.6°
